[[{"header":{"parameterUnit":"m.s-1","parameterCategory":1,"la1":30.2991,"la2":30.254,"lo1":-89.0895,"lo2":-89.0444,"dy":0.0017,"dx":0.0017,"nx":28,"ny":28,"refTime":"2025-06-22T21:00:00:Z","depth":0,"parameterNumber":2,"parameterNumberName":"U-component_of_WINDS"},"data":[0,0,0,0,0,0,0,0,0,0,0,0,0,0,0,0,0,0,0,0,0,0,0,0,0,0,0,0,0,0,0,0,0,0,0,0,0,0,0,0,0,0,0,0,0,0,0,0,0,0,0,0,0,0,0,0,0,0,-2.3195,-2.3194,0,-2.3122,-2.3121,-2.312,-2.3034,-2.3032,-2.3031,-2.303,-2.2955,-2.2954,-2.2954,0,0,0,0,0,0,0,0,0,0,0,0,0,-2.3262,-2.3261,-2.3195,-2.3194,-2.3193,-2.3122,-2.3121,-2.312,-2.3034,-2.3032,-2.3031,-2.3029,-2.2955,-2.2954,-2.2954,0,0,0,0,0,0,0,0,0,0,0,0,0,-2.3215,-2.3261,-2.3195,-2.3142,-2.3136,-2.3122,-2.3121,-2.312,-2.3034,-2.3032,-2.303,-2.3028,-2.2956,-2.2955,-2.2953,-2.2986,0,0,-2.295,-2.295,0,0,0,0,0,0,0,0,-2.3218,-2.3213,-2.315,-2.3145,-2.3139,-2.3085,-2.3117,-2.3075,-2.3035,-2.3073,-2.303,-2.3027,-2.3,-2.2995,-2.2986,-2.2983,-2.298,-2.295,-2.2949,-2.2949,-2.2948,0,0,0,0,0,0,0,-2.3221,-2.3216,-2.3166,-2.315,-2.3143,-2.3122,-2.3113,-2.3109,-2.3048,-2.3069,-2.3063,-2.3055,-2.2996,-2.2987,-2.2983,-2.2979,-2.295,-2.2949,-2.2948,-2.2948,-2.3001,-2.3003,0,0,0,0,0,0,-2.3233,-2.3219,-2.3168,-2.3164,-2.3174,-2.3122,-2.3112,-2.3104,-2.3048,-2.3038,-2.3057,-2.3052,-2.299,-2.2985,-2.298,-2.3016,-2.2949,-2.2948,-2.2947,-2.2999,-2.3002,-2.3004,0,0,0,0,0,0,-2.3234,-2.3229,-2.3171,-2.319,-2.3181,-2.3123,-2.3115,-2.3104,-2.3094,-2.3039,-2.3028,-2.3058,-2.2988,-2.2982,-2.2986,-2.3012,-2.2947,-2.2946,-2.2997,-2.3,-2.3003,-2.3087,0,0,0,0,0,0,-2.3237,-2.323,-2.3241,-2.319,-2.318,-2.3178,-2.3116,-2.3104,-2.3092,-2.3085,-2.3037,-2.3028,-2.2986,-2.2988,-2.2985,-2.3009,-2.2945,-2.2994,-2.2998,-2.3002,-2.3082,-2.3093,-2.3102,0,0,0,0,0,-2.3239,-2.3267,-2.3242,-2.3236,-2.3193,-2.3179,-2.3173,-2.3125,-2.3095,-2.3106,-2.3071,-2.3029,-2.301,-2.2989,-2.2985,-2.3009,-2.2992,-2.2997,-2.3002,-2.3077,-2.3091,-2.3102,0,0,0,0,0,0,-2.3322,-2.3259,-2.3231,-2.3243,-2.3217,-2.3165,-2.3177,-2.314,-2.3122,-2.3115,-2.3056,-2.3047,-2.3058,-2.3034,-2.3012,-2.304,-2.2995,-2.2999,-2.3054,-2.3066,-2.3077,-2.3081,-2.2944,0,0,0,0,0,-2.3342,-2.3335,-2.3282,-2.3298,-2.3286,-2.3235,-2.3227,-2.3192,-2.3163,-2.3151,-2.3116,-2.309,-2.3078,-2.3071,-2.3057,-2.3079,-2.3068,-2.3094,-2.3104,-2.3113,-2.3117,-2.3128,-2.3139,-2.302,-2.302,-2.302,0,0,-2.3382,-2.3347,-2.3347,-2.3314,-2.3289,-2.3285,-2.3225,-2.3223,-2.3219,-2.315,-2.3152,-2.3127,-2.3093,-2.3107,-2.3111,-2.3087,-2.3148,-2.3119,-2.3126,-2.3125,-2.3134,-2.3145,-2.3155,-2.3023,-2.3022,-2.3022,0,0,-2.3453,-2.3426,-2.3437,-2.3415,-2.3379,-2.3345,-2.3348,-2.3302,-2.3282,-2.3283,-2.3232,-2.3228,-2.3208,-2.3187,-2.3174,-2.3241,-2.3202,-2.3238,-2.3291,-2.3303,-2.3312,-2.332,-2.3344,-2.3354,-2.3243,-2.3243,-2.3243,0,-2.3507,-2.3498,-2.3447,-2.3448,-2.3436,-2.3375,-2.3386,-2.3367,-2.3329,-2.3322,-2.3297,-2.3273,-2.3246,-2.3254,-2.3271,-2.3263,-2.3265,-2.3242,-2.3315,-2.3322,-2.3329,-2.3352,-2.3361,-2.3247,-2.3247,-2.3246,-2.3246,0,-2.3567,-2.3562,-2.3575,-2.3541,-2.353,-2.3536,-2.3488,-2.3483,-2.3451,-2.342,-2.3423,-2.339,-2.3368,-2.3368,-2.3336,-2.3373,-2.336,-2.3326,-2.328,-2.3346,-2.3366,-2.3374,-2.3254,-2.3252,-2.3251,-2.325,0,0,-2.3684,-2.3624,-2.363,-2.3614,-2.3572,-2.3568,-2.3573,-2.3553,-2.355,-2.3527,-2.353,-2.3517,-2.3486,-2.3471,-2.3437,-2.3447,-2.3504,-2.3412,-2.341,-2.343,-2.3544,-2.3569,-2.3579,-2.3479,-2.348,-2.3481,-2.3546,0,-2.3747,-2.3751,-2.3707,-2.3723,-2.3719,-2.3663,-2.3667,-2.3643,-2.3615,-2.3608,-2.3577,-2.3569,-2.3529,-2.352,-2.3528,-2.3495,-2.3526,-2.349,-2.3481,-2.3481,-2.349,-2.359,-2.3616,-2.3678,-2.3554,-2.3555,-2.3556,0,-2.3819,-2.3802,-2.3818,-2.3777,-2.3774,-2.3778,-2.3758,-2.3751,-2.3724,-2.3703,-2.3688,-2.365,-2.3653,-2.3611,-2.3615,-2.3592,-2.3587,-2.3571,-2.3572,-2.3568,-2.3522,-2.3588,-2.3697,-2.3706,-2.3568,-2.3567,-2.3566,0,-2.3904,-2.3884,-2.3891,-2.3879,-2.3832,-2.3837,-2.3818,-2.3788,-2.378,-2.3763,-2.3757,-2.374,-2.3731,-2.372,-2.3678,-2.3651,-2.3688,-2.3642,-2.3671,-2.3672,-2.3679,-2.3679,-2.3788,-2.3678,-2.3678,-2.3678,-2.3677,0,-2.3977,-2.3989,-2.3928,-2.3932,-2.3945,-2.3896,-2.391,-2.3885,-2.386,-2.386,-2.3811,-2.3812,-2.3757,-2.3753,-2.3721,-2.373,-2.3726,-2.371,-2.3701,-2.3713,-2.3715,-2.3707,-2.3701,-2.368,-2.368,-2.3679,-2.3679,0,-2.4072,-2.4031,-2.4036,-2.3992,-2.3982,-2.3993,-2.3956,-2.3959,-2.393,-2.393,-2.3927,-2.3881,-2.3873,-2.3831,-2.3813,-2.3792,-2.3812,-2.3795,-2.3822,-2.3816,-2.3847,-2.3844,-2.3953,-2.3966,-2.3849,-2.385,-2.3851,0,-2.412,-2.4128,-2.4087,-2.4083,-2.4066,-2.4061,-2.4053,-2.4006,-2.3999,-2.397,-2.3977,-2.3966,-2.3954,-2.3944,-2.391,-2.3897,-2.3878,-2.3918,-2.3876,-2.3889,-2.3878,-2.3878,-2.3879,-2.3926,-2.3927,-2.3929,-2.393,0,-2.4212,-2.4192,-2.4182,-2.4166,-2.4157,-2.4142,-2.4124,-2.4124,-2.4073,-2.4069,-2.406,-2.4051,-2.4034,-2.4024,-2.4006,-2.3986,-2.395,-2.3944,-2.395,-2.3962,-2.3977,-2.3969,-2.3845,-2.3941,-2.394,-2.3939,-2.3938,-2.3938,-2.4284,-2.4289,-2.4261,-2.4252,-2.4234,-2.4219,-2.4221,-2.4193,-2.4185,-2.4167,-2.4141,-2.4137,-2.4111,-2.4083,-2.4068,-2.4064,-2.4043,-2.4052,-2.4054,-2.4056,-2.4063,-2.3979,-2.4061,-2.4061,-2.406,-2.406,-2.406,0,-2.4372,-2.4352,-2.4345,-2.4322,-2.4315,-2.4283,-2.4262,-2.4259,-2.4256,-2.4236,-2.4226,-2.4218,-2.4208,-2.4175,-2.4162,-2.4166,-2.4149,-2.4164,-2.4162,-2.4159,-2.4082,-2.4078,-2.4178,-2.4178,-2.4178,-2.4178,-2.4178,-2.4178,-2.4417,-2.4424,-2.4402,-2.4402,-2.4381,-2.4377,-2.4368,-2.4355,-2.4339,-2.4332,-2.4324,-2.4302,-2.4277,-2.4263,-2.4253,-2.4244,-2.4241,-2.4262,-2.4247,-2.4176,-2.4164,-2.4153,-2.4149,-2.4262,-2.4262,-2.4323,-2.4324,-2.4324]},{"header":{"parameterUnit":"m.s-1","parameterCategory":1,"la1":30.2991,"la2":30.254,"lo1":-89.0895,"lo2":-89.0444,"dy":0.0017,"dx":0.0017,"nx":28,"ny":28,"refTime":"2025-06-22T21:00:00:Z","depth":0,"parameterNumber":3,"parameterNumberName":"V-component_of_WINDS"},"data":[0,0,0,0,0,0,0,0,0,0,0,0,0,0,0,0,0,0,0,0,0,0,0,0,0,0,0,0,0,0,0,0,0,0,0,0,0,0,0,0,0,0,0,0,0,0,0,0,0,0,0,0,0,0,0,0,0,0,2.6386,2.6386,0,2.6387,2.6387,2.6387,2.6428,2.6429,2.643,2.6431,2.6427,2.6426,2.6425,0,0,0,0,0,0,0,0,0,0,0,0,0,2.6414,2.6414,2.6386,2.6386,2.6386,2.6387,2.6387,2.6387,2.6428,2.6429,2.6431,2.6432,2.6427,2.6426,2.6425,0,0,0,0,0,0,0,0,0,0,0,0,0,2.6407,2.6413,2.6386,2.6407,2.6409,2.6387,2.6387,2.6387,2.6428,2.6429,2.6431,2.6432,2.6428,2.6426,2.6424,2.6382,0,0,2.6419,2.6418,0,0,0,0,0,0,0,0,2.6408,2.6406,2.6404,2.6405,2.6407,2.6409,2.6396,2.6385,2.6427,2.642,2.6431,2.6433,2.6419,2.6418,2.6415,2.6381,2.6381,2.6419,2.6418,2.6417,2.6417,0,0,0,0,0,0,0,2.6408,2.6406,2.6386,2.6403,2.6406,2.6414,2.6415,2.6394,2.641,2.6421,2.6424,2.6424,2.6421,2.6416,2.6415,2.6381,2.6419,2.6418,2.6417,2.6416,2.6313,2.6311,0,0,0,0,0,0,2.6406,2.6406,2.6386,2.6386,2.6412,2.6413,2.6414,2.6407,2.6411,2.6413,2.6423,2.6426,2.6419,2.6417,2.6415,2.6365,2.6417,2.6416,2.6415,2.6315,2.6313,2.6311,0,0,0,0,0,0,2.6407,2.6404,2.6386,2.6397,2.6396,2.641,2.6403,2.6406,2.6402,2.6412,2.6415,2.6416,2.642,2.6417,2.639,2.6366,2.6415,2.6413,2.6317,2.6314,2.6312,2.6265,0,0,0,0,0,0,2.6408,2.6404,2.6389,2.6397,2.6395,2.6362,2.6401,2.6405,2.64,2.6404,2.6406,2.6408,2.6421,2.6392,2.6388,2.6364,2.6412,2.6319,2.6316,2.6313,2.6269,2.6261,2.6255,0,0,0,0,0,2.6408,2.6374,2.6388,2.6385,2.6377,2.6361,2.636,2.6377,2.6398,2.6382,2.6389,2.6408,2.637,2.6389,2.6385,2.636,2.632,2.6316,2.6313,2.6272,2.6263,2.6255,0,0,0,0,0,0,2.6361,2.6376,2.6391,2.6359,2.6359,2.6368,2.6348,2.6366,2.6359,2.6363,2.6383,2.6383,2.6352,2.6354,2.6375,2.6319,2.6348,2.6344,2.6319,2.631,2.6303,2.6303,2.6411,0,0,0,0,0,2.6347,2.6335,2.6348,2.6318,2.6318,2.6333,2.6327,2.634,2.634,2.6339,2.6344,2.6341,2.6329,2.632,2.6309,2.627,2.6271,2.6251,2.6244,2.6238,2.6233,2.6212,2.6203,2.6298,2.6298,2.6298,0,0,2.6318,2.6324,2.6315,2.6309,2.631,2.6296,2.6332,2.6315,2.6304,2.6336,2.6311,2.6315,2.6313,2.628,2.6265,2.628,2.6207,2.6233,2.6228,2.6226,2.6207,2.6198,2.619,2.6295,2.6296,2.6296,0,0,2.6256,2.6261,2.6237,2.6238,2.6241,2.6251,2.6246,2.6253,2.6257,2.6233,2.6257,2.6243,2.6221,2.6219,2.6215,2.6155,2.6172,2.6151,2.6113,2.6093,2.6085,2.6079,2.6057,2.6048,2.6146,2.6146,2.6146,0,2.6219,2.6199,2.6221,2.6203,2.6199,2.6231,2.6206,2.6205,2.6203,2.6199,2.6217,2.6191,2.6192,2.6158,2.6144,2.614,2.6133,2.615,2.6085,2.6079,2.6073,2.6052,2.6044,2.6143,2.6144,2.6144,2.6144,0,2.6152,2.6139,2.6119,2.6118,2.6113,2.6091,2.6108,2.61,2.6114,2.6123,2.6098,2.6101,2.6091,2.6085,2.6097,2.6053,2.6062,2.6082,2.6112,2.6061,2.6041,2.6033,2.614,2.6141,2.6141,2.6142,0,0,2.6059,2.6073,2.6065,2.6065,2.6071,2.606,2.604,2.6033,2.6025,2.6023,2.6005,2.5987,2.6006,2.6001,2.6015,2.5997,2.5949,2.6019,2.602,2.6005,2.5899,2.5883,2.5874,2.5962,2.596,2.5959,2.5899,0,2.5999,2.5966,2.5986,2.595,2.5937,2.5968,2.595,2.5951,2.5959,2.5948,2.5956,2.5943,2.5969,2.5967,2.5951,2.5958,2.5928,2.5963,2.5943,2.5943,2.5941,2.5864,2.5846,2.5789,2.5892,2.589,2.5889,0,2.5924,2.5921,2.5884,2.5894,2.5889,2.5873,2.5868,2.5858,2.5859,2.5867,2.5863,2.5881,2.586,2.5891,2.5863,2.5886,2.588,2.5882,2.5881,2.5878,2.5912,2.5857,2.5772,2.5763,2.5878,2.5879,2.588,0,2.5858,2.5845,2.5821,2.5821,2.5831,2.5819,2.5823,2.5827,2.5821,2.5817,2.5813,2.5806,2.5801,2.5794,2.581,2.5831,2.5779,2.5811,2.5782,2.5782,2.5768,2.5768,2.5679,2.5766,2.5767,2.5767,2.5767,0,2.5788,2.5764,2.5792,2.5777,2.5751,2.5774,2.5747,2.5754,2.5757,2.5743,2.5769,2.5755,2.5777,2.5765,2.5776,2.5751,2.5748,2.5752,2.5755,2.5749,2.5748,2.5744,2.5747,2.5765,2.5765,2.5765,2.5766,0,2.5709,2.5728,2.5704,2.5717,2.5719,2.5699,2.571,2.5696,2.5707,2.5689,2.5686,2.5702,2.5689,2.5704,2.5692,2.57,2.5665,2.5674,2.5665,2.5667,2.5637,2.5639,2.554,2.5528,2.5624,2.5624,2.5623,0,2.5663,2.5645,2.5657,2.5651,2.5653,2.5642,2.5638,2.566,2.5654,2.5656,2.5641,2.5631,2.5624,2.5602,2.5612,2.5603,2.5611,2.5578,2.561,2.5604,2.5609,2.561,2.5608,2.557,2.5569,2.5568,2.5567,0,2.5578,2.5588,2.5581,2.5578,2.5572,2.557,2.5569,2.5562,2.5586,2.5577,2.5566,2.5561,2.555,2.5539,2.5533,2.5535,2.5554,2.5557,2.555,2.5543,2.5537,2.5539,2.5645,2.5559,2.556,2.556,2.5561,2.5561,2.5513,2.5499,2.5505,2.5497,2.55,2.5499,2.5487,2.5497,2.5489,2.5483,2.5496,2.5481,2.5484,2.5478,2.5479,2.5466,2.5481,2.547,2.5467,2.5464,2.5459,2.5541,2.5465,2.5466,2.5466,2.5466,2.5466,0,2.5428,2.5435,2.5427,2.5427,2.542,2.5442,2.5443,2.5435,2.5422,2.5424,2.5418,2.5404,2.5394,2.5404,2.5396,2.5384,2.5393,2.5381,2.5381,2.5381,2.5447,2.5454,2.5374,2.5374,2.5374,2.5374,2.5374,2.5374,2.5383,2.5361,2.5372,2.5351,2.5357,2.5344,2.5343,2.5342,2.5344,2.5328,2.5321,2.5329,2.5333,2.5326,2.5318,2.5321,2.5316,2.5301,2.5307,2.5368,2.5377,2.5385,2.5391,2.53,2.53,2.5242,2.5241,2.5241]}]]